Change the Weather History Date:

Sunday, May 26, 2013

  Actual Average Record
Temperature  
Mean Temperature 55 °F 61 °F  
Max Temperature 72 °F 75 °F 94 °F (1958)
Min Temperature 38 °F 48 °F 29 °F (1967)
Degree Days  
Heating Degree Days 10 5  
Month to date heating degree days 170 212  
Since 1 July heating degree days 5983 6251  
Cooling Degree Days 0 1  
Month to date cooling degree days 23 16  
Year to date cooling degree days 23 17  
Growing Degree Days 5 (Base 50)    
Moisture  
Dew Point 40 °F    
Average Humidity 59    
Maximum Humidity 85    
Minimum Humidity 33    
Precipitation  
Precipitation 0.00 in 0.05 in 0.74 in (2011)
Month to date precipitation 1.33 1.06  
Year to date precipitation 3.85 6.27  
Sea Level Pressure  
Sea Level Pressure 29.93 in    
Wind  
Wind Speed 5 mph (SSW)    
Max Wind Speed 13 mph    
Max Gust Speed 21 mph    
Visibility 10 miles    
Events      
T = Trace of Precipitation, MM = Missing Value Source: NWS Daily Summary

Daily Weather History Graph

Daily Weather History Graph

Search for Another Location

Airport or City:

Trip Planner

Search our weather history database for the weather conditions in past years. The results will help you decide how hot, cold, wet, or windy it might be!

Date:

Astronomy

May. 26, 2013 Rise Set
Actual Time 5:05 AM PDT 8:45 PM PDT
Civil Twilight 4:25 AM PDT 9:25 PM PDT
Nautical Twilight 3:32 AM PDT 10:19 PM PDT
Astronomical Twilight 2:16 AM PDT 11:36 PM PDT
Moon 10:34 PM PDT (5/26) 6:41 AM PDT (5/26)
Length of Visible Light 16h 59m
Length of Day
15h 40m
Waning Gibbous, 96% of the Moon is Illuminated
May 26
Waning Gibbous
May 31
Last Quarter
Jun 8
New
Jun 16
First Quarter
Jun 23
Full

Hourly Weather History & Observations

Time (PDT) Temp. Windchill Dew Point Humidity Pressure Visibility Wind Dir Wind Speed Gust Speed Precip Events Conditions
12:53 AM 46.0 °F 41.4 °F 39.0 °F 76% 29.97 in 10.0 mi WNW 9.2 mph - N/A   Clear
1:53 AM 44.1 °F 40.8 °F 37.9 °F 79% 29.97 in 10.0 mi NW 5.8 mph - N/A   Clear
2:53 AM 43.0 °F 39.5 °F 37.0 °F 80% 29.97 in 10.0 mi WNW 5.8 mph - N/A   Clear
3:53 AM 41.0 °F 38.0 °F 36.0 °F 82% 29.98 in 10.0 mi NW 4.6 mph - N/A   Clear
4:53 AM 39.0 °F 36.8 °F 36.0 °F 89% 29.98 in 10.0 mi NW 3.5 mph - N/A   Clear
5:53 AM 42.1 °F - 37.9 °F 85% 29.99 in 10.0 mi Calm Calm - N/A   Clear
6:53 AM 48.9 °F - 39.9 °F 71% 29.98 in 10.0 mi Calm Calm - N/A   Mostly Cloudy
7:53 AM 50.0 °F - 39.9 °F 68% 29.98 in 10.0 mi Calm Calm - N/A   Mostly Cloudy
8:53 AM 54.0 °F - 39.9 °F 59% 29.99 in 10.0 mi Variable 3.5 mph - N/A   Partly Cloudy
9:53 AM 57.0 °F - 41.0 °F 55% 29.97 in 10.0 mi ENE 3.5 mph - N/A   Clear
10:53 AM 61.0 °F - 42.1 °F 50% 29.96 in 10.0 mi Calm Calm - N/A   Clear
11:53 AM 64.0 °F - 41.0 °F 43% 29.94 in 10.0 mi Variable 3.5 mph - N/A   Partly Cloudy
12:53 PM 64.9 °F - 41.0 °F 42% 29.94 in 10.0 mi South 10.4 mph - N/A   Partly Cloudy
1:53 PM 68.0 °F - 41.0 °F 37% 29.92 in 10.0 mi SSW 5.8 mph - N/A   Overcast
2:53 PM 68.0 °F - 39.9 °F 36% 29.91 in 10.0 mi Calm Calm - N/A   Clear
3:53 PM 71.1 °F - 41.0 °F 34% 29.89 in 10.0 mi South 9.2 mph - N/A   Mostly Cloudy
4:53 PM 70.0 °F - 42.1 °F 36% 29.88 in 10.0 mi SSW 10.4 mph 20.7 mph N/A   Clear
5:53 PM 70.0 °F - 39.9 °F 33% 29.88 in 10.0 mi South 10.4 mph - N/A   Partly Cloudy
6:53 PM 66.9 °F - 39.9 °F 37% 29.87 in 10.0 mi South 9.2 mph - N/A   Mostly Cloudy
7:53 PM 64.0 °F - 43.0 °F 46% 29.87 in 10.0 mi South 5.8 mph - N/A   Mostly Cloudy
8:53 PM 61.0 °F - 45.0 °F 56% 29.88 in 10.0 mi SSE 4.6 mph - N/A   Overcast
9:53 PM 62.1 °F - 43.0 °F 50% 29.88 in 10.0 mi SSE 5.8 mph - N/A   Overcast
10:53 PM 60.1 °F - 43.0 °F 53% 29.88 in 10.0 mi South 6.9 mph - N/A   Overcast
11:53 PM 60.1 °F - 44.1 °F 55% 29.88 in 10.0 mi South 9.2 mph - N/A   Overcast